Location: Filler
(36.7551°N, 30.4456°E)
Time: 07:39:09
(UTC+00:00)

FENGYUN 3A - Pass Details

Date: 22 September 2024
Orbit: 821 x 835 km, 98.6° (Epoch: 12 October)

Event Time Altitude Azimuth Distance (km) Brightness Sun altitude
Rises 23:41:12 0° 20° (NNE) 3,362 7.5 -45.4°
Reaches altitude 10° 23:43:40 10° 27° (NNE) 2,424 6.6 -45.0°
Enters shadow 23:44:05 12° 28° (NNE) 2,271 6.4 -45.0°
